Tracking 27126 objects as of 30-Mar-2023
HD Live streaming from Space Station
objects crossing your sky now

STARLINK-4064

Track STARLINK-4064 now!
10-day predictions
STARLINK-4064 is classified as:


NORAD ID: 52665
Int'l Code: 2022-053K
Perigee: 546.3 km
Apogee: 547.5 km
Inclination: 53.2 °
Period: 95.4 minutes
Semi major axis: 6917 km
RCS: Unknown
Launch date: May 18, 2022
Source: United States (US)
Launch site: AIR FORCE EASTERN TEST RANGE (AFETR)
Your satellite tracking list
Your tracking list is empty




NASA's NSSDC Master Catalog

Two Line Element Set (TLE):
1 52665U 22053K   23088.85678551  .00014825  00000-0  94766-3 0  9997
2 52665  53.2152 303.7193 0000873  57.8434 302.2642 15.08836661 48633
Source of the keplerian elements: AFSPC